Tracking 29892 objects as of 21-Nov-2024
HD Live streaming from Space Station
objects crossing your sky now

YAOGAN-32 2A

Track YAOGAN-32 2A now!
10-day predictions


NORAD ID: 49383
Int'l Code: 2021-099A
Perigee: 691.8 km
Apogee: 693.1 km
Inclination: 98.2 °
Period: 98.5 minutes
Semi major axis: 7063 km
RCS: Unknown
Launch date: November 3, 2021
Source: People's Republic of China (PRC)
Launch site: Jiuquan Satellite Launch Center, China (JSC)
Your satellite tracking list
Your tracking list is empty




NASA's NSSDC Master Catalog

Two Line Element Set (TLE):
1 49383U 21099A   24326.15829559  .00002123  00000-0  42885-3 0  9997
2 49383  98.2203  88.9563 0000919 118.4503 241.6791 14.62434082162556
Source of the keplerian elements: AFSPC